Regional Weather Roundup
Issued by NWS Jackson, KY

Home | Current Version | Previous Version | Graphics & Text | Print | Product List | Glossary On
Versions: 1 2 3 4 5 6 7 8 9 10 11 12 13 14 15 16 17 18 19 20 21 22 23 24 25 26 27
000
ASUS43 KJKL 232310
RWRJKL

EAST KENTUCKY HOURLY WEATHER ROUNDUP
NATIONAL WEATHER SERVICE JACKSON KY
700 PM EDT TUE AUG 23 2016

NOTE: "FAIR" INDICATES FEW OR NO CLOUDS BELOW 12,000 FEET WITH
NO SIGNIFICANT WEATHER AND/OR OBSTRUCTIONS TO VISIBILITY.

* THESE REPORTS ARE NOT UNDER NWS QUALITY CONTROL AND MAY NOT
  REPORT WEATHER SUCH AS PRECIPITATION AND FOG.

KYZ079-080-083-085-087-088-110-112-115-119-120-240000
...EASTERN KENTUCKY...

CITY           SKY/WX    TMP DP  RH WIND       PRES   REMARKS
JACKSON        CLOUDY    79  61  53 NW3       30.26S
LONDON         SUNNY     81  58  45 CALM      30.25S
SOMERSET*      MOSUNNY   79  59  50 CALM      30.25R
MONTICELLO*    MOSUNNY  N/A N/A N/A W13       30.25S
WILLIAMSBURG*  CLEAR     81  64  57 CALM      30.24S
MIDDLESBORO*   SUNNY     83  64  52 CALM      30.25R
HARLAN APT*    PTCLDY   N/A N/A N/A W3        30.26S
PIKE CO APT*   PTSUNNY   79  62  55 N5        30.26S
BIG SANDY APT* CLEAR     82  62  50 CALM      30.25S
MOREHEAD APT*  CLEAR     81  61  50 CALM      30.26S
ASHLAND*       SUNNY     82  61  47 W3        30.21S
$$

KYZ035-036-041-042-044-050-067-078-099-240000
...CENTRAL KENTUCKY...

CITY           SKY/WX    TMP DP  RH WIND       PRES   REMARKS
MT STERLING*   SUNNY     81  61  50 CALM      30.25S
FLEMING/MASON* SUNNY     80  61  52 CALM      30.25S
DANVILLE*      MOSUNNY   77  64  65 CALM      30.25S
LEXINGTON      MOSUNNY   79  62  56 SW5       30.24R
FRANKFORT      MOSUNNY   80  61  52 SW5       30.22R
LOUISVILLE     PTSUNNY   80  59  48 S6        30.21S
LEBANON*         N/A     79  66  65 CALM      30.23S
GLASGOW*       CLOUDY    78  68  70 CALM      30.21F
BOWLING GREEN  CLOUDY    82  65  56 NE6       30.20S
$$

KYZ091>093-OHZ055-061-077-WVZ005-015-034-035-042-240000
...SOUTHERN OHIO/WEST VIRGINIA...

CITY           SKY/WX    TMP DP  RH WIND       PRES   REMARKS
COVINGTON      PTSUNNY   79  62  56 S3        30.22S
COLUMBUS       PTSUNNY   79  57  46 S7        30.23F
DAYTON         PTSUNNY   78  59  51 SE10      30.24S
WILMINGTON     SUNNY     77  61  57 S5        30.25R
HUNTINGTON     SUNNY     81  60  48 CALM      30.22F
CHARLESTON     MOSUNNY   83  61  47 NW5       30.23F
PINEVILLE*     SUNNY     74  64  70 MISG      30.31S
BECKLEY        MOSUNNY   78  59  51 VRB3      30.31S
BLUEFIELD      MOSUNNY   74  60  61 S3        30.33F
LOGAN CO APT*    N/A     79  64  61 CALM      30.25S
$$

VAZ002-007-008-TNZ017-027-036-066-071-240000
...SOUTHWEST VIRGINIA/EAST TENNESSEE...

CITY           SKY/WX    TMP DP  RH WIND       PRES   REMARKS
WISE*          MOSUNNY   75  52  43 CALM      30.34R
JONESVILLE*      N/A     82  66  57 CALM      30.27S
ABINGDON*      MOSUNNY   81  62  51 N5        30.29R
BRISTOL        PTSUNNY   85  56  37 CALM      30.25S
MORRISTOWN*    CLEAR     84  64  51 NW7       30.23S
SEVIERVILLE*   PTCLDY    84  64  51 W5        30.21S
KNOXVILLE      MOSUNNY   85  63  47 W7        30.21S
OAK RIDGE      SUNNY     86  61  42 VRB3      30.23S
CROSSVILLE     SUNNY     79  64  60 W6        30.28S
NASHVILLE      CLOUDY    83  69  62 CALM      30.20F
$$

...KEY TO REMARKS...
VSB - VISIBILITY IN MILES
WCI - WIND CHILL INDEX
HX  - HEAT INDEX

$$




USA.gov is the U.S. government's official web portal to all federal, state and local government web resources and services.